Regional Weather Roundup
Issued by NWS

Home | Current Version | Previous Version | Graphics & Text | Print | Product List | Glossary Off
Versions: 1 2 3 4 5 6 7 8 9 10 11 12 13 14 15 16 17 18 19 20 21 22 23 24 25 26 27 28 29 30 31 32 33 34 35 36 37 38 39 40 41 42 43 44 45 46 47 48 49 50

000
ASUS43 KDMX 010607
RWRIA

WEATHER ROUNDUP FOR IOWA
NATIONAL WEATHER SERVICE DES MOINES IA
100 AM CDT WED APR 01 2015

NOTE: "FAIR" INDICATES FEW OR NO CLOUDS BELOW 12,000 FEET WITH NO
SIGNIFICANT WEATHER AND/OR OBSTRUCTIONS TO VISIBILITY.

* - THESE STATIONS ARE NOT NWS STATIONS...THUS NOT UNDER NWS
QUALITY CONTROL.  THEY ALSO DO NOT REPORT WEATHER SUCH
AS PRECIPITATION OR FOG.

IAZ001>003-012>014-020>022-031>034-043>046-010700-
   NORTHWEST IOWA

CITY           SKY/WX    TMP DP  RH WIND       PRES   REMARKS
CARROLL *      PTCLDY    50  30  46 S9        29.86F
CHEROKEE *     CLEAR     51  32  48 S8        29.82F
DENISON *      PTCLDY    55  30  38 S15G24    29.83S
LE MARS *      CLEAR     54  32  43 S5        29.79F
ORANGE CITY *  CLEAR     55  30  38 S10       29.79F
SHELDON *      CLEAR     54  32  43 S14       29.78F
SIOUX CITY     CLEAR     59  31  34 S13       29.80F
6HR MIN TEMP:  54; 6HR MAX TEMP:  75;

SPENCER        CLEAR     47  33  58 S10       29.81F
6HR MIN TEMP:  47; 6HR MAX TEMP:  70;

STORM LAKE *   CLEAR     48  32  53 S14       29.84F
$$

IAZ055>058-069>071-079>083-090>094-010700-
   SOUTHWEST IOWA

CITY           SKY/WX    TMP DP  RH WIND       PRES   REMARKS
ATLANTIC *     PTCLDY    57  32  38 S10       29.88F
AUDUBON *      CLEAR     41  32  70 CALM      29.88F
CLARINDA *     CLEAR     41  34  75 SW3       29.91F
COUNCIL BLFS * CLOUDY    57  32  38 S13       29.86F
CRESTON *      CLEAR     54  32  43 S12       29.91F
HARLAN  *      CLEAR     52  32  46 S8        29.90F
LAMONI         CLEAR     57  32  38 S8        29.93F
6HR MIN TEMP:  57; 6HR MAX TEMP:  72;

RED OAK *      CLEAR     54  32  43 S6        29.88F
SHENANDOAH *   PTCLDY    54  34  47 SE13      29.88F
$$

IAZ047>049-059>061-072>074-084-010700-
   CENTRAL IOWA

CITY           SKY/WX    TMP DP  RH WIND       PRES   REMARKS
AMES           CLEAR     49  33  54 SE7       29.88F
6HR MIN TEMP:  48; 6HR MAX TEMP:  70;

ANKENY *       CLEAR     52  34  50 S6        29.90F
CHARITON *     CLEAR     52  34  50 S13       29.92F
DES MOINES     CLEAR     54  33  45 S8        29.90F
6HR MIN TEMP:  53; 6HR MAX TEMP:  73;

GRINNELL*      PTCLDY    48  32  53 S8        29.91F
KNOXVILLE *    CLEAR     54  32  43 S8        29.90F
MARSHALLTOWN   PTCLDY    48  32  53 SE9       29.89F
6HR MIN TEMP:  46; 6HR MAX TEMP:  67;

PELLA *        CLEAR     51  37  57 S6        29.92F
PERRY *          N/A     45  32  61 S8        29.88S
$$

IAZ004>006-015-016-023>025-035-036-010700-
   NORTH CENTRAL IOWA

CITY           SKY/WX    TMP DP  RH WIND       PRES   REMARKS
ALGONA *       CLEAR     54  34  47 S14       29.85F
CLARION *      CLEAR     48  34  57 SE10      29.86F
ESTHERVILLE    CLEAR     43  32  65 S8        29.82F
6HR MIN TEMP:  43; 6HR MAX TEMP:  69;

FORT DODGE *   PTCLDY    57  32  38 S9        29.86F
MASON CITY     PTCLDY    42  33  70 SE8       29.89F
6HR MIN TEMP:  42; 6HR MAX TEMP:  66;

FOREST CITY *  CLEAR     41  32  70 SE3       29.87F
IOWA FALLS *     N/A     50  34  53 S9        29.89F
$$

IAZ007>011-017>019-026>030-037>042-050>054-066-010700-
   NORTHEAST IOWA

CITY           SKY/WX    TMP DP  RH WIND       PRES   REMARKS
CEDAR RAPIDS     N/A     45  32  60 SE5       29.92F
6HR MIN TEMP:  44; 6HR MAX TEMP:  65;

CHARLES CITY * CLEAR     46  34  61 SE9       29.90F
CLINTON *        N/A     41  28  60 S3        29.98R
DECORAH *      PTCLDY    46  34  61 SE6       29.90F
DUBUQUE          N/A     39  30  70 CALM      29.94S
6HR MIN TEMP:  37; 6HR MAX TEMP:  59;

MONTICELLO *   CLEAR     36  32  87 CALM      29.93F
OELWEIN *      CLEAR     45  34  65 SE8       29.92S
WATERLOO       PTCLDY    41  33  73 SE6       29.90F
6HR MIN TEMP:  39; 6HR MAX TEMP:  64;

$$

IAZ064-065-067-068-078-010700-
   EAST CENTRAL IOWA

CITY           SKY/WX    TMP DP  RH WIND       PRES   REMARKS
DAVENPORT      CLEAR     44  28  53 SE3       29.96S
6HR MIN TEMP:  43; 6HR MAX TEMP:  63;

IOWA CITY      CLEAR     43  33  68 CALM      29.95F
6HR MIN TEMP:  41; 6HR MAX TEMP:  67;

MT. PLEASANT * CLEAR     46  31  56 S7        29.95F
MUSCATINE *    CLEAR     41  34  75 CALM      29.95F
QUAD CITIES    CLEAR     38  30  73 CALM      29.95F
6HR MIN TEMP:  38; 6HR MAX TEMP:  65;

$$

IAZ062-063-075>077-085>089-095>099-010700-
   SOUTHEAST IOWA

CITY           SKY/WX    TMP DP  RH WIND       PRES   REMARKS
BURLINGTON     CLEAR     51  32  48 S3        29.95F
6HR MIN TEMP:  49; 6HR MAX TEMP:  68;

FAIRFIELD *    CLEAR     52  30  43 S7        29.95S
FORT MADISON * CLEAR     54  32  43 S6        29.97S
KEOKUK *       CLEAR     52  32  46 S3        29.96S
OSKALOOSA *      N/A     46  32  58 S9        29.93F
CENTERVILLE *  CLEAR     48  34  57 S9        29.96F
OTTUMWA        CLEAR     48  32  53 S6        29.93F
6HR MIN TEMP:  48; 6HR MAX TEMP:  68;

WASHINGTON *   CLEAR     48  32  53 S8        29.94F
$$

ABBREVIATIONS USED IN REMARKS
   TC - TEMPERATURES IN CELSIUS
  WCI - WIND CHILL INDEX
   HX - HEAT INDEX
  VSB - VISIBILITY
$$



USA.gov is the U.S. government's official web portal to all federal, state and local government web resources and services.